Weather History for Blythe, CA

Change the Weather History Date:

Monday, April 16, 2012

  Actual Average Record
Temperature  
Mean Temperature 68 °F -  
Max Temperature 87 °F 83 °F 102 °F (1984)
Min Temperature 52 °F 54 °F 42 °F (2009)
Cooling Degree Days 3    
Growing Degree Days 18 (Base 50)    
Moisture  
Dew Point 31 °F    
Average Humidity 26    
Maximum Humidity 47    
Minimum Humidity 13    
Precipitation  
Precipitation 0.00 in - - ()
Sea Level Pressure  
Sea Level Pressure 30.05 in    
Wind  
Wind Speed 4 mph (ENE)    
Max Wind Speed 7 mph    
Max Gust Speed -    
Visibility 10 miles    
Events      
Averages and records for this station are not official NWS values.
T = Trace of Precipitation, MM = Missing Value Source: NWS Daily Summary

Daily Weather History Graph

Daily Weather History Graph

Search for Another Location

Airport:

Trip Planner

Search our weather history database for the weather conditions in past years. The results will help you decide how hot, cold, wet, or windy it might be!

Date:

Astronomy

Apr. 16, 2012 Rise Set
Actual Time 6:06 AM PDT 7:11 PM PDT
Civil Twilight 5:40 AM PDT 7:36 PM PDT
Nautical Twilight 5:10 AM PDT 8:07 PM PDT
Astronomical Twilight 4:38 AM PDT 8:38 PM PDT
Moon 3:25 AM PDT (4/16) 3:20 PM PDT (4/16)
Length of Visible Light 13h 55m
Length of Day
13h 04m
Waning Crescent, 18% of the Moon is Illuminated
Apr 16
Waning Crescent
Apr 21
New
Apr 29
First Quarter
May 5
Full
May 12
Last Quarter

Hourly Weather History & Observations

Time (PDT) Temp. Dew Point Humidity Pressure Visibility Wind Dir Wind Speed Gust Speed Precip Events Conditions
12:52 AM 59.0 °F 35.1 °F 41% 30.06 in 10.0 mi NNW 3.5 mph - N/A   Clear
1:52 AM 55.9 °F 30.9 °F 39% 30.05 in 10.0 mi NNW 4.6 mph - N/A   Clear
2:52 AM 55.9 °F 32.0 °F 40% 30.06 in 10.0 mi NNW 5.8 mph - N/A   Clear
3:52 AM 55.9 °F 33.1 °F 42% 30.06 in 10.0 mi Calm Calm - N/A   Clear
4:52 AM 54.0 °F 32.0 °F 43% 30.06 in 10.0 mi NW 5.8 mph - N/A   Clear
5:52 AM 52.0 °F 32.0 °F 47% 30.08 in 10.0 mi Calm Calm - N/A   Clear
6:52 AM 55.9 °F 35.1 °F 45% 30.10 in 10.0 mi NNW 4.6 mph - N/A   Clear
8:52 AM 64.9 °F 37.9 °F 37% 30.14 in 10.0 mi ESE 3.5 mph - N/A   Clear
9:52 AM 70.0 °F 39.9 °F 33% 30.14 in 10.0 mi ESE 3.5 mph - N/A   Clear
10:52 AM 77.0 °F 35.1 °F 22% 30.13 in 10.0 mi Calm Calm - N/A   Clear
11:52 AM 81.0 °F 30.9 °F 16% 30.10 in 10.0 mi Variable 3.5 mph - N/A   Clear
12:52 PM 82.9 °F 33.1 °F 17% 30.07 in 10.0 mi Variable 6.9 mph - N/A   Clear
1:52 PM 84.0 °F 28.0 °F 13% 30.06 in 10.0 mi Calm Calm - N/A   Clear
2:52 PM 84.0 °F 27.0 °F 13% 30.04 in 10.0 mi Variable 3.5 mph - N/A   Clear
3:52 PM 84.9 °F 28.0 °F 13% 30.01 in 10.0 mi SE 6.9 mph - N/A   Clear
4:52 PM 84.0 °F 28.0 °F 13% 30.00 in 10.0 mi SE 4.6 mph - N/A   Clear
5:52 PM 84.9 °F 28.0 °F 13% 29.99 in 10.0 mi East 3.5 mph - N/A   Clear
6:52 PM 82.9 °F 27.0 °F 13% 29.98 in 10.0 mi SE 3.5 mph - N/A   Clear
7:52 PM 80.1 °F 28.9 °F 15% 29.98 in 10.0 mi SSE 3.5 mph - N/A   Clear
8:52 PM 75.0 °F 28.9 °F 18% 29.99 in 10.0 mi Calm Calm - N/A   Clear
9:52 PM 73.9 °F 28.0 °F 18% 29.99 in 10.0 mi West 4.6 mph - N/A   Clear
10:52 PM 66.9 °F 24.1 °F 20% 30.00 in 10.0 mi North 6.9 mph - N/A   Clear